Terminal Aerodrome Forecast
Issued by NWS

Home | Current Version | Previous Version | Text Only | Print | Product List | Glossary On
Versions: 1 2 3 4 5 6 7 8 9 10 11 12 13 14 15 16 17 18 19 20 21 22 23 24 25 26 27 28 29 30 31 32 33 34 35 36 37 38 39 40 41 42 43 44 45 46 47 48 49 50
000
FTAK31 PANC 241505 AAB
TAFASN
TAF AMD
PASN 241505Z 2415/2512 29015KT 6SM BR OVC007
     FM241600 30015KT 1SM BR OVC002
     FM242200 30012KT P6SM OVC004
     FM250600 30006KT 1/2SM FG VV001=

USA.gov is the U.S. government's official web portal to all federal, state and local government web resources and services.